Retour au catalogue

FREGAT R/B

ActifHEO
NORAD 40002·ROCKET BODY·🇷🇺 Russia

Lancé Jun 14, 2014 depuis Plesetsk Cosmodrome

Loading…

Prochains Passages (prochaines 24 heures)

TLE

FraisSource: Space-Track

Époque: Sep 13, 2026, 09:38 UTC

1 40002U 14032B   26256.40188353 -.00000059  00000-0  00000+0 0  9993
2 40002  65.3787 317.0536 0078309  84.9503 276.0170  2.09160880 93576

Suivez FREGAT R/B en temps réel avec AllMySat

Download on the App Store